Time,TemperatureF,DewpointF,PressureIn,WindDirection,WindDirectionDegrees,WindSpeedMPH,WindSpeedGustMPH,Humidity,HourlyPrecipIn,Conditions,Clouds,dailyrainin,SolarRadiationWatts/m^2,SoftwareType,DateUTC
2013-01-23 00:02:00,50.0,36.0,-100.00,East,101,0.0,0.0,59,0.00,,,0.00,0.000000,,2013-01-23 08:02:00,
2013-01-23 00:12:00,50.0,36.0,-100.00,East,101,0.0,0.0,59,0.00,,,0.00,0.000000,,2013-01-23 08:12:00,
2013-01-23 00:22:00,50.0,36.0,-100.00,East,101,0.0,0.0,59,0.00,,,0.00,0.000000,,2013-01-23 08:22:00,
2013-01-23 00:32:00,50.0,36.0,-100.00,East,101,0.0,0.0,59,0.00,,,0.00,0.000000,,2013-01-23 08:32:00,
2013-01-23 00:53:00,51.0,37.0,-100.00,East,92,0.0,0.0,58,0.00,,,0.00,1.000000,,2013-01-23 08:53:00,
2013-01-23 01:02:00,51.0,37.0,-100.00,East,92,0.0,0.0,58,0.00,,,0.00,1.000000,,2013-01-23 09:02:00,
2013-01-23 01:12:00,51.0,37.0,-100.00,East,92,0.0,0.0,58,0.00,,,0.00,1.000000,,2013-01-23 09:12:00,
2013-01-23 01:22:00,51.0,37.0,-100.00,East,92,0.0,0.0,58,0.00,,,0.00,1.000000,,2013-01-23 09:22:00,
2013-01-23 01:32:00,51.0,37.0,-100.00,East,92,0.0,0.0,58,0.00,,,0.00,1.000000,,2013-01-23 09:32:00,
2013-01-23 01:53:00,51.0,36.0,-100.00,ENE,72,0.0,0.0,57,0.00,,,0.00,0.000000,,2013-01-23 09:53:00,
2013-01-23 02:02:00,51.0,36.0,-100.00,ENE,72,0.0,0.0,57,0.00,,,0.00,0.000000,,2013-01-23 10:02:00,
2013-01-23 02:12:00,51.0,36.0,-100.00,ENE,72,0.0,0.0,57,0.00,,,0.00,0.000000,,2013-01-23 10:12:00,
2013-01-23 02:22:00,51.0,36.0,-100.00,ENE,72,0.0,0.0,57,0.00,,,0.00,0.000000,,2013-01-23 10:22:00,
2013-01-23 02:32:00,51.0,36.0,-100.00,ENE,72,0.0,0.0,57,0.00,,,0.00,0.000000,,2013-01-23 10:32:00,
2013-01-23 02:53:00,52.0,35.0,-100.00,East,92,0.0,0.0,52,0.00,,,0.00,1.000000,,2013-01-23 10:53:00,
2013-01-23 03:02:00,52.0,35.0,-100.00,East,92,0.0,0.0,52,0.00,,,0.00,1.000000,,2013-01-23 11:02:00,
2013-01-23 03:12:00,52.0,35.0,-100.00,East,92,0.0,0.0,52,0.00,,,0.00,1.000000,,2013-01-23 11:12:00,
2013-01-23 03:22:00,52.0,35.0,-100.00,East,92,0.0,0.0,52,0.00,,,0.00,1.000000,,2013-01-23 11:22:00,
2013-01-23 03:32:00,52.0,35.0,-100.00,East,92,0.0,0.0,52,0.00,,,0.00,1.000000,,2013-01-23 11:32:00,
2013-01-23 03:53:00,49.0,36.0,-100.00,East,91,0.0,0.0,60,0.00,,,0.00,0.000000,,2013-01-23 11:53:00,
2013-01-23 04:03:00,49.0,36.0,-100.00,East,91,0.0,0.0,60,0.00,,,0.00,0.000000,,2013-01-23 12:03:00,
2013-01-23 04:12:00,49.0,36.0,-100.00,East,91,0.0,0.0,60,0.00,,,0.00,0.000000,,2013-01-23 12:12:00,
2013-01-23 04:22:00,49.0,36.0,-100.00,East,91,0.0,0.0,60,0.00,,,0.00,0.000000,,2013-01-23 12:22:00,
2013-01-23 04:32:00,49.0,36.0,-100.00,East,91,0.0,0.0,60,0.00,,,0.00,0.000000,,2013-01-23 12:32:00,
2013-01-23 04:33:00,50.0,37.0,-100.00,East,87,0.0,0.0,61,0.00,,,0.00,0.000000,,2013-01-23 12:33:00,
2013-01-23 04:53:00,50.0,37.0,-100.00,East,87,0.0,0.0,61,0.00,,,0.00,0.000000,,2013-01-23 12:53:00,
2013-01-23 05:03:00,50.0,37.0,-100.00,East,87,0.0,0.0,61,0.00,,,0.00,0.000000,,2013-01-23 13:03:00,
2013-01-23 05:12:00,50.0,37.0,-100.00,East,87,0.0,0.0,61,0.00,,,0.00,0.000000,,2013-01-23 13:12:00,
2013-01-23 05:22:00,50.0,37.0,-100.00,East,87,0.0,0.0,61,0.00,,,0.00,0.000000,,2013-01-23 13:22:00,
2013-01-23 05:33:00,50.0,36.0,-100.00,ENE,59,0.0,0.0,59,0.00,,,0.00,1.000000,,2013-01-23 13:33:00,
2013-01-23 05:53:00,50.0,36.0,-100.00,ENE,59,0.0,0.0,59,0.00,,,0.00,1.000000,,2013-01-23 13:53:00,
2013-01-23 06:02:00,50.0,36.0,-100.00,ENE,59,0.0,0.0,59,0.00,,,0.00,1.000000,,2013-01-23 14:02:00,
2013-01-23 06:12:00,50.0,36.0,-100.00,ENE,59,0.0,0.0,59,0.00,,,0.00,1.000000,,2013-01-23 14:12:00,
2013-01-23 06:23:00,50.0,36.0,-100.00,ENE,59,0.0,0.0,59,0.00,,,0.00,1.000000,,2013-01-23 14:23:00,
2013-01-23 06:33:00,50.0,35.0,-100.00,East,99,0.0,0.0,57,0.00,,,0.00,0.000000,,2013-01-23 14:33:00,
2013-01-23 06:53:00,50.0,35.0,-100.00,East,99,0.0,0.0,57,0.00,,,0.00,0.000000,,2013-01-23 14:53:00,
2013-01-23 07:02:00,50.0,35.0,-100.00,East,99,0.0,0.0,57,0.00,,,0.00,0.000000,,2013-01-23 15:02:00,
2013-01-23 07:12:00,50.0,35.0,-100.00,East,99,0.0,0.0,57,0.00,,,0.00,0.000000,,2013-01-23 15:12:00,
2013-01-23 07:22:00,50.0,35.0,-100.00,East,99,0.0,0.0,57,0.00,,,0.00,0.000000,,2013-01-23 15:22:00,
2013-01-23 07:53:00,49.0,36.0,-100.00,ESE,112,0.0,0.0,60,0.00,,,0.00,1.000000,,2013-01-23 15:53:00,
2013-01-23 08:03:00,49.0,36.0,-100.00,ESE,112,0.0,0.0,60,0.00,,,0.00,1.000000,,2013-01-23 16:03:00,
2013-01-23 08:12:00,49.0,36.0,-100.00,ESE,112,0.0,0.0,60,0.00,,,0.00,1.000000,,2013-01-23 16:12:00,
2013-01-23 08:22:00,49.0,36.0,-100.00,ESE,112,0.0,0.0,60,0.00,,,0.00,1.000000,,2013-01-23 16:22:00,
2013-01-23 08:32:00,49.0,36.0,-100.00,ESE,112,0.0,0.0,60,0.00,,,0.00,1.000000,,2013-01-23 16:32:00,
2013-01-23 08:33:00,53.0,33.0,-100.00,SE,127,0.0,0.0,47,0.00,,,0.00,16.000000,,2013-01-23 16:33:00,
2013-01-23 08:53:00,53.0,33.0,-100.00,SE,127,0.0,0.0,47,0.00,,,0.00,16.000000,,2013-01-23 16:53:00,
2013-01-23 09:03:00,53.0,33.0,-100.00,SE,127,0.0,0.0,47,0.00,,,0.00,16.000000,,2013-01-23 17:03:00,
2013-01-23 09:12:00,53.0,33.0,-100.00,SE,127,0.0,0.0,47,0.00,,,0.00,16.000000,,2013-01-23 17:12:00,
2013-01-23 09:22:00,53.0,33.0,-100.00,SE,127,0.0,0.0,47,0.00,,,0.00,16.000000,,2013-01-23 17:22:00,
2013-01-23 09:53:00,53.0,34.0,-100.00,ESE,115,0.0,0.0,49,0.00,,,0.00,52.000000,,2013-01-23 17:53:00,
2013-01-23 10:03:00,53.0,34.0,-100.00,ESE,115,0.0,0.0,49,0.00,,,0.00,52.000000,,2013-01-23 18:03:00,
2013-01-23 10:12:00,53.0,34.0,-100.00,ESE,115,0.0,0.0,49,0.00,,,0.00,52.000000,,2013-01-23 18:12:00,
2013-01-23 10:23:00,53.0,34.0,-100.00,ESE,115,0.0,0.0,49,0.00,,,0.00,52.000000,,2013-01-23 18:23:00,
2013-01-23 10:32:00,53.0,34.0,-100.00,ESE,115,0.0,0.0,49,0.00,,,0.00,52.000000,,2013-01-23 18:32:00,
2013-01-23 10:53:00,51.0,38.0,-100.00,East,94,0.0,0.0,60,0.00,,,-99.99,88.000000,,2013-01-23 18:53:00,
2013-01-23 11:02:00,51.0,38.0,-100.00,East,94,0.0,0.0,60,0.00,,,-99.99,88.000000,,2013-01-23 19:02:00,
2013-01-23 11:12:00,51.0,38.0,-100.00,East,94,0.0,0.0,60,0.00,,,-99.99,88.000000,,2013-01-23 19:12:00,
2013-01-23 11:22:00,51.0,38.0,-100.00,East,94,0.0,0.0,60,0.00,,,-99.99,88.000000,,2013-01-23 19:22:00,
2013-01-23 11:32:00,51.0,38.0,-100.00,East,94,0.0,0.0,60,0.00,,,-99.99,88.000000,,2013-01-23 19:32:00,
2013-01-23 11:53:00,53.0,34.0,-100.00,SE,134,0.0,0.0,48,0.00,,,0.00,77.000000,,2013-01-23 19:53:00,
2013-01-23 12:03:00,53.0,34.0,-100.00,SE,134,0.0,0.0,48,0.00,,,0.00,77.000000,,2013-01-23 20:03:00,
2013-01-23 12:12:00,53.0,34.0,-100.00,SE,134,0.0,0.0,48,0.00,,,0.00,77.000000,,2013-01-23 20:12:00,
2013-01-23 12:22:00,53.0,34.0,-100.00,SE,134,0.0,0.0,48,0.00,,,0.00,77.000000,,2013-01-23 20:22:00,
2013-01-23 12:32:00,53.0,34.0,-100.00,SE,134,0.0,0.0,48,0.00,,,0.00,77.000000,,2013-01-23 20:32:00,
2013-01-23 12:53:00,54.0,32.0,-100.00,SE,144,0.0,0.0,43,0.00,,,0.00,105.000000,,2013-01-23 20:53:00,
2013-01-23 13:02:00,54.0,32.0,-100.00,SE,144,0.0,0.0,43,0.00,,,0.00,105.000000,,2013-01-23 21:02:00,
2013-01-23 13:33:00,47.0,40.0,-100.00,ESE,117,8.0,12.0,76,0.03,,,0.03,72.000000,,2013-01-23 21:33:00,
2013-01-23 13:53:00,47.0,40.0,-100.00,ESE,117,8.0,12.0,76,0.03,,,0.03,72.000000,,2013-01-23 21:53:00,
2013-01-23 14:02:00,47.0,40.0,-100.00,ESE,117,8.0,12.0,76,0.03,,,0.03,72.000000,,2013-01-23 22:02:00,
2013-01-23 14:12:00,47.0,40.0,-100.00,ESE,117,8.0,12.0,76,0.03,,,0.03,72.000000,,2013-01-23 22:12:00,
2013-01-23 14:22:00,47.0,40.0,-100.00,ESE,117,8.0,12.0,76,0.03,,,0.03,72.000000,,2013-01-23 22:22:00,
2013-01-23 14:33:00,47.0,43.0,-100.00,NW,306,0.0,15.0,85,0.04,,,0.07,58.000000,,2013-01-23 22:33:00,
2013-01-23 15:03:00,47.0,43.0,-100.00,NW,306,0.0,15.0,85,0.04,,,0.07,58.000000,,2013-01-23 23:03:00,
2013-01-23 15:12:00,47.0,43.0,-100.00,NW,306,0.0,15.0,85,0.04,,,0.07,58.000000,,2013-01-23 23:12:00,
2013-01-23 15:22:00,47.0,43.0,-100.00,NW,306,0.0,15.0,85,0.04,,,0.07,58.000000,,2013-01-23 23:22:00,
2013-01-23 15:53:00,47.0,44.0,-100.00,SSE,149,7.0,11.0,88,0.08,,,0.15,43.000000,,2013-01-23 23:53:00,
2013-01-23 16:03:00,47.0,44.0,-100.00,SSE,149,7.0,11.0,88,0.08,,,0.15,43.000000,,2013-01-24 00:03:00,
2013-01-23 16:12:00,47.0,44.0,-100.00,SSE,149,7.0,11.0,88,0.08,,,0.15,43.000000,,2013-01-24 00:12:00,
2013-01-23 16:22:00,47.0,44.0,-100.00,SSE,149,7.0,11.0,88,0.08,,,0.15,43.000000,,2013-01-24 00:22:00,
2013-01-23 16:32:00,47.0,44.0,-100.00,SSE,149,7.0,11.0,88,0.08,,,0.15,43.000000,,2013-01-24 00:32:00,
2013-01-23 16:53:00,49.0,49.0,-100.00,SSE,156,0.0,9.0,99,0.08,,,0.23,29.000000,,2013-01-24 00:53:00,
2013-01-23 17:02:00,49.0,49.0,-100.00,SSE,156,0.0,9.0,99,0.08,,,0.23,29.000000,,2013-01-24 01:02:00,
2013-01-23 17:12:00,49.0,49.0,-100.00,SSE,156,0.0,9.0,99,0.08,,,0.23,29.000000,,2013-01-24 01:12:00,
2013-01-23 17:22:00,49.0,49.0,-100.00,SSE,156,0.0,9.0,99,0.08,,,0.23,29.000000,,2013-01-24 01:22:00,
2013-01-23 17:32:00,49.0,49.0,-100.00,SSE,156,0.0,9.0,99,0.08,,,0.23,29.000000,,2013-01-24 01:32:00,
2013-01-23 17:52:00,46.0,46.0,-100.00,East,88,0.0,0.0,100,0.00,,,0.23,8.000000,,2013-01-24 01:52:00,
2013-01-23 18:02:00,46.0,46.0,-100.00,East,88,0.0,0.0,100,0.00,,,0.23,8.000000,,2013-01-24 02:02:00,
2013-01-23 18:12:00,46.0,46.0,-100.00,East,88,0.0,0.0,100,0.00,,,0.23,8.000000,,2013-01-24 02:12:00,
2013-01-23 18:22:00,46.0,46.0,-100.00,East,88,0.0,0.0,100,0.00,,,0.23,8.000000,,2013-01-24 02:22:00,
2013-01-23 18:32:00,46.0,46.0,-100.00,East,88,0.0,0.0,100,0.00,,,0.23,8.000000,,2013-01-24 02:32:00,
2013-01-23 19:02:00,48.0,48.0,-100.00,East,91,0.0,0.0,100,0.00,,,0.23,1.000000,,2013-01-24 03:02:00,
2013-01-23 19:12:00,48.0,48.0,-100.00,East,91,0.0,0.0,100,0.00,,,0.23,1.000000,,2013-01-24 03:12:00,
2013-01-23 19:22:00,48.0,48.0,-100.00,East,91,0.0,0.0,100,0.00,,,0.23,1.000000,,2013-01-24 03:22:00,
2013-01-23 19:32:00,48.0,48.0,-100.00,East,91,0.0,0.0,100,0.00,,,0.23,1.000000,,2013-01-24 03:32:00,
2013-01-23 19:53:00,53.0,50.0,-100.00,North,355,0.0,0.0,91,0.00,,,0.23,0.000000,,2013-01-24 03:53:00,
2013-01-23 20:02:00,53.0,50.0,-100.00,North,355,0.0,0.0,91,0.00,,,0.23,0.000000,,2013-01-24 04:02:00,
2013-01-23 20:32:00,53.0,50.0,-100.00,North,355,0.0,0.0,91,0.00,,,0.23,0.000000,,2013-01-24 04:32:00,
2013-01-23 20:53:00,49.0,49.0,-100.00,East,79,0.0,11.0,100,0.01,,,0.24,1.000000,,2013-01-24 04:53:00,
2013-01-23 21:03:00,49.0,49.0,-100.00,East,79,0.0,11.0,100,0.01,,,0.24,1.000000,,2013-01-24 05:03:00,
2013-01-23 21:12:00,49.0,49.0,-100.00,East,79,0.0,11.0,100,0.01,,,0.24,1.000000,,2013-01-24 05:12:00,
2013-01-23 21:22:00,49.0,49.0,-100.00,East,79,0.0,11.0,100,0.01,,,0.24,1.000000,,2013-01-24 05:22:00,
2013-01-23 21:32:00,49.0,49.0,-100.00,East,79,0.0,11.0,100,0.01,,,0.24,1.000000,,2013-01-24 05:32:00,
2013-01-23 21:53:00,49.0,49.0,-100.00,ESE,105,0.0,0.0,100,0.02,,,0.26,1.000000,,2013-01-24 05:53:00,
2013-01-23 22:02:00,49.0,49.0,-100.00,ESE,105,0.0,0.0,100,0.02,,,0.26,1.000000,,2013-01-24 06:02:00,
2013-01-23 22:12:00,49.0,49.0,-100.00,ESE,105,0.0,0.0,100,0.02,,,0.26,1.000000,,2013-01-24 06:12:00,
2013-01-23 22:22:00,49.0,49.0,-100.00,ESE,105,0.0,0.0,100,0.02,,,0.26,1.000000,,2013-01-24 06:22:00,
2013-01-23 22:32:00,49.0,49.0,-100.00,ESE,105,0.0,0.0,100,0.02,,,0.26,1.000000,,2013-01-24 06:32:00,
2013-01-23 22:52:00,47.0,47.0,-100.00,ESE,111,0.0,0.0,100,0.01,,,0.27,0.000000,,2013-01-24 06:52:00,
2013-01-23 23:02:00,47.0,47.0,-100.00,ESE,111,0.0,0.0,100,0.01,,,0.27,0.000000,,2013-01-24 07:02:00,
2013-01-23 23:12:00,47.0,47.0,-100.00,ESE,111,0.0,0.0,100,0.01,,,0.27,0.000000,,2013-01-24 07:12:00,
2013-01-23 23:22:00,47.0,47.0,-100.00,ESE,111,0.0,0.0,100,0.01,,,0.27,0.000000,,2013-01-24 07:22:00,
2013-01-23 23:32:00,47.0,47.0,-100.00,ESE,111,0.0,0.0,100,0.01,,,0.27,0.000000,,2013-01-24 07:32:00,
2013-01-23 23:53:00,45.0,45.0,-100.00,SE,131,0.0,0.0,100,0.01,,,0.28,0.000000,,2013-01-24 07:53:00,